20040121,000016,1313838,35.603167,-121.225167,NaN,13.481,32.923,39.221,  NaN,0.0, NaN, NaN, NaN, NaN, NaN,324.451,12.80,1017.19,82.00,NaN,342.0,NaN,6.2,NaN,252.4,NaN,1.5,NaN,NaN, NaN,NaN,331.0,NaN,NaN,NaN,2,8.3,000014,   NaN,326.4,     NaN,      NaN,NaN,5.7,NaN,13.484, NaN,NaN,NaN, NaN, NaN

20040121,000046,1313868,35.604167,-121.225833,NaN,13.459,32.923,39.202,  NaN,0.0, NaN, NaN, NaN, NaN, NaN,324.054,13.00,1017.18,82.40,NaN,343.0,NaN,5.4,NaN,267.5,NaN,2.3,NaN,NaN, NaN,NaN,332.0,NaN,NaN,NaN,2,8.7,000044,   NaN,326.3,     NaN,      NaN,NaN,5.8,NaN,13.463, NaN,NaN,NaN, NaN, NaN

20040121,000116,1313898,35.605167,-121.226667,NaN,13.432,32.919,39.173,  NaN,0.0, NaN, NaN, NaN, NaN, NaN,323.764,13.00,1017.09,82.60,NaN,347.0,NaN,6.4,NaN,288.1,NaN,2.9,NaN,NaN, NaN,NaN,329.0,NaN,NaN,NaN,2,8.8,000074,   NaN,327.2,     NaN,      NaN,NaN,5.7,NaN,13.435, NaN,NaN,NaN, NaN, NaN

20040121,000146,1313928,35.606333,-121.227333,NaN,13.432,32.918,39.171,  NaN,0.0, NaN, NaN, NaN, NaN, NaN,323.884,13.00,1017.14,82.50,NaN,344.0,NaN,5.8,NaN,279.7,NaN,2.5,NaN,NaN, NaN,NaN,330.0,NaN,NaN,NaN,2,8.5,000104,   NaN,326.9,     NaN,      NaN,NaN,5.8,NaN,13.435, NaN,NaN,NaN, NaN, NaN

20040121,000216,1313958,35.607333,-121.228167,NaN,13.424,32.920,39.167,  NaN,0.0, NaN, NaN, NaN, NaN, NaN,323.542,13.00,1017.13,83.00,NaN,347.0,NaN,5.5,NaN,297.4,NaN,2.3,NaN,NaN, NaN,NaN,329.0,NaN,NaN,NaN,2,8.8,000134,   NaN,327.7,     NaN,      NaN,NaN,5.8,NaN,13.427, NaN,NaN,NaN, NaN, NaN

20040121,000246,1313988,35.608333,-121.229000,NaN,13.411,32.920,39.154,  NaN,0.0, NaN, NaN, NaN, NaN, NaN,323.343,13.00,1017.20,83.00,NaN,344.0,NaN,5.2,NaN,273.4,NaN,2.2,NaN,NaN, NaN,NaN,331.0,NaN,NaN,NaN,2,8.7,000164,   NaN,326.5,     NaN,      NaN,NaN,5.9,NaN,13.415, NaN,NaN,NaN, NaN, NaN

20040121,000316,1314018,35.609333,-121.229667,NaN,13.425,32.919,39.166,  NaN,0.0, NaN, NaN, NaN, NaN, NaN,323.705,13.00,1017.16,82.80,NaN,346.0,NaN,6.4,NaN,251.7,NaN,1.3,NaN,NaN, NaN,NaN,329.0,NaN,NaN,NaN,2,8.5,000194,   NaN,326.1,     NaN,      NaN,NaN,5.7,NaN,13.429, NaN,NaN,NaN, NaN, NaN

20040121,000346,1314048,35.610333,-121.230500,NaN,13.430,32.920,39.171,  NaN,0.0, NaN, NaN, NaN, NaN, NaN,323.658,12.80,1017.09,82.60,NaN,349.0,NaN,6.6,NaN,287.7,NaN,2.0,NaN,NaN, NaN,NaN,328.0,NaN,NaN,NaN,2,8.5,000224,   NaN,326.6,     NaN,      NaN,NaN,5.9,NaN,13.433, NaN,NaN,NaN, NaN, NaN

20040121,000416,1314078,35.611333,-121.231333,NaN,13.438,32.918,39.177,  NaN,0.0, NaN, NaN, NaN, NaN, NaN,323.951,12.80,1017.16,82.90,NaN,343.0,NaN,5.6,NaN,279.1,NaN,2.1,NaN,NaN, NaN,NaN,330.0,NaN,NaN,NaN,2,8.6,000254,   NaN,326.3,     NaN,      NaN,NaN,5.8,NaN,13.441, NaN,NaN,NaN, NaN, NaN

20040121,000446,1314108,35.612500,-121.232000,NaN,13.455,32.918,39.192,  NaN,0.0, NaN, NaN, NaN, NaN, NaN,324.343,13.00,1017.09,83.40,NaN,347.0,NaN,6.2,NaN,288.0,NaN,2.6,NaN,NaN, NaN,NaN,328.0,NaN,NaN,NaN,2,8.8,000284,   NaN,327.3,     NaN,      NaN,NaN,5.8,NaN,13.459, NaN,NaN,NaN, NaN, NaN

20040121,000516,1314138,35.613500,-121.232833,NaN,13.455,32.919,39.194,  NaN,0.0, NaN, NaN, NaN, NaN, NaN,324.224,13.00,1017.19,83.00,NaN,342.0,NaN,6.4,NaN,266.8,NaN,2.3,NaN,NaN, NaN,NaN,328.0,NaN,NaN,NaN,2,8.7,000314,   NaN,325.7,     NaN,      NaN,NaN,5.9,NaN,13.458, NaN,NaN,NaN, NaN, NaN

20040121,000546,1314168,35.614500,-121.233667,NaN,13.463,32.918,39.200,  NaN,0.0, NaN, NaN, NaN, NaN, NaN,324.490,13.00,1017.15,83.30,NaN,340.0,NaN,6.4,NaN,259.1,NaN,2.1,NaN,NaN, NaN,NaN,330.0,NaN,NaN,NaN,2,8.7,000344,   NaN,326.6,     NaN,      NaN,NaN,6.0,NaN,13.467, NaN,NaN,NaN, NaN, NaN

20040121,000616,1314198,35.615500,-121.234333,NaN,13.479,32.919,39.216,  NaN,0.0, NaN, NaN, NaN, NaN, NaN,324.675,12.80,1017.00,82.90,NaN,344.0,NaN,5.9,NaN,269.6,NaN,2.0,NaN,NaN, NaN,NaN,330.0,NaN,NaN,NaN,2,8.8,000374,   NaN,327.5,     NaN,      NaN,NaN,6.0,NaN,13.482, NaN,NaN,NaN, NaN, NaN

20040121,000646,1314228,35.616500,-121.235167,NaN,13.489,32.920,39.226,  NaN,0.0, NaN, NaN, NaN, NaN, NaN,324.818,12.80,1017.19,83.70,NaN,344.0,NaN,6.3,NaN,274.4,NaN,2.2,NaN,NaN, NaN,NaN,330.0,NaN,NaN,NaN,2,8.6,000404,   NaN,326.1,     NaN,      NaN,NaN,5.8,NaN,13.492, NaN,NaN,NaN, NaN, NaN

20040121,000716,1314258,35.617667,-121.235833,NaN,13.501,32.919,39.237,  NaN,0.0, NaN, NaN, NaN, NaN, NaN,325.089,12.80,1017.10,83.00,NaN,341.0,NaN,6.7,NaN,279.4,NaN,2.1,NaN,NaN, NaN,NaN,329.0,NaN,NaN,NaN,2,8.4,000434,   NaN,326.4,     NaN,      NaN,NaN,5.7,NaN,13.504, NaN,NaN,NaN, NaN, NaN

20040121,000746,1314288,35.618667,-121.236667,NaN,13.509,32.920,39.245,  NaN,0.0, NaN, NaN, NaN, NaN, NaN,325.191,12.80,1017.08,83.20,NaN,340.0,NaN,6.8,NaN,277.4,NaN,2.2,NaN,NaN, NaN,NaN,327.0,NaN,NaN,NaN,2,8.2,000464,   NaN,325.6,     NaN,      NaN,NaN,5.8,NaN,13.512, NaN,NaN,NaN, NaN, NaN

20040121,000816,1314318,35.619500,-121.237333,NaN,13.507,32.921,39.244,  NaN,0.0, NaN, NaN, NaN, NaN, NaN,325.081,12.80,1017.15,83.30,NaN,339.0,NaN,7.0,NaN,272.9,NaN,2.8,NaN,NaN, NaN,NaN,330.0,NaN,NaN,NaN,2,8.2,000494,   NaN,327.1,     NaN,      NaN,NaN,5.6,NaN,13.511, NaN,NaN,NaN, NaN, NaN

20040121,000846,1314348,35.620667,-121.238167,NaN,13.483,32.923,39.224,  NaN,0.0, NaN, NaN, NaN, NaN, NaN,324.485,12.80,1017.06,83.40,NaN,340.0,NaN,6.5,NaN,275.8,NaN,2.9,NaN,NaN, NaN,NaN,329.0,NaN,NaN,NaN,2,8.5,000524,   NaN,327.0,     NaN,      NaN,NaN,5.8,NaN,13.486, NaN,NaN,NaN, NaN, NaN

20040121,000916,1314378,35.621667,-121.238833,NaN,13.492,32.919,39.227,  NaN,0.0, NaN, NaN, NaN, NaN, NaN,324.970,12.80,1016.89,82.90,NaN,346.0,NaN,6.4,NaN,288.9,NaN,2.4,NaN,NaN, NaN,NaN,333.0,NaN,NaN,NaN,2,8.5,000554,   NaN,329.2,     NaN,      NaN,NaN,5.8,NaN,13.495, NaN,NaN,NaN, NaN, NaN

20040121,000946,1314408,35.622667,-121.239500,NaN,13.501,32.921,39.238,  NaN,0.0, NaN, NaN, NaN, NaN, NaN,324.993,12.80,1017.12,83.50,NaN,342.0,NaN,6.8,NaN,277.9,NaN,2.6,NaN,NaN, NaN,NaN,333.0,NaN,NaN,NaN,2,8.7,000584,   NaN,327.9,     NaN,      NaN,NaN,5.8,NaN,13.505, NaN,NaN,NaN, NaN, NaN

20040121,001016,1314438,35.623833,-121.240333,NaN,13.505,32.922,39.243,  NaN,0.0, NaN, NaN, NaN, NaN, NaN,324.976,12.80,1017.12,83.40,NaN,341.0,NaN,6.8,NaN,280.0,NaN,2.9,NaN,NaN, NaN,NaN,331.0,NaN,NaN,NaN,2,8.5,000614,   NaN,325.5,     NaN,      NaN,NaN,6.0,NaN,13.508, NaN,NaN,NaN, NaN, NaN

20040121,001046,1314468,35.624833,-121.241000,NaN,13.511,32.921,39.248,  NaN,0.0, NaN, NaN, NaN, NaN, NaN,325.136,12.80,1017.20,83.50,NaN,337.0,NaN,6.7,NaN,271.3,NaN,3.2,NaN,NaN, NaN,NaN,330.0,NaN,NaN,NaN,2,8.7,000644,   NaN,325.0,     NaN,      NaN,NaN,5.7,NaN,13.514, NaN,NaN,NaN, NaN, NaN

20040121,001116,1314498,35.625833,-121.241833,NaN,13.526,32.922,39.263,  NaN,0.0, NaN, NaN, NaN, NaN, NaN,325.367,12.80,1017.12,83.50,NaN,341.0,NaN,6.7,NaN,281.3,NaN,2.9,NaN,NaN, NaN,NaN,330.0,NaN,NaN,NaN,2,8.7,000674,   NaN,327.4,     NaN,      NaN,NaN,5.8,NaN,13.530, NaN,NaN,NaN, NaN, NaN

20040121,001146,1314528,35.626833,-121.242500,NaN,13.544,32.922,39.279,  NaN,0.0, NaN, NaN, NaN, NaN, NaN,325.709,12.80,1017.09,83.80,NaN,343.0,NaN,7.8,NaN,294.6,NaN,3.1,NaN,NaN, NaN,NaN,328.0,NaN,NaN,NaN,2,8.7,000704,   NaN,327.0,     NaN,      NaN,NaN,5.9,NaN,13.547, NaN,NaN,NaN, NaN, NaN

20040121,001216,1314558,35.628000,-121.243333,NaN,13.539,32.925,39.278,  NaN,0.0, NaN, NaN, NaN, NaN, NaN,325.396,12.80,1017.18,83.50,NaN,343.0,NaN,7.5,NaN,291.7,NaN,3.4,NaN,NaN, NaN,NaN,328.0,NaN,NaN,NaN,2,8.8,000734,   NaN,326.8,     NaN,      NaN,NaN,5.9,NaN,13.542, NaN,NaN,NaN, NaN, NaN

20040121,001246,1314588,35.629000,-121.244000,NaN,13.523,32.927,39.265,  NaN,0.0, NaN, NaN, NaN, NaN, NaN,324.973,12.80,1017.24,84.10,NaN,346.0,NaN,7.6,NaN,285.8,NaN,3.3,NaN,NaN, NaN,NaN,329.0,NaN,NaN,NaN,2,8.7,000764,   NaN,326.7,     NaN,      NaN,NaN,5.8,NaN,13.526, NaN,NaN,NaN, NaN, NaN

20040121,001316,1314618,35.630000,-121.244833,NaN,13.510,32.926,39.252,  NaN,0.0, NaN, NaN, NaN, NaN, NaN,324.753,12.80,1017.14,83.90,NaN,353.0,NaN,7.4,NaN,304.2,NaN,3.2,NaN,NaN, NaN,NaN,329.0,NaN,NaN,NaN,2,8.9,000794,   NaN,326.2,     NaN,      NaN,NaN,5.9,NaN,13.513, NaN,NaN,NaN, NaN, NaN

20040121,001346,1314648,35.631167,-121.245500,NaN,13.493,32.926,39.236,  NaN,0.0, NaN, NaN, NaN, NaN, NaN,324.478,12.80,1017.11,83.80,NaN,355.0,NaN,7.8,NaN,304.1,NaN,3.2,NaN,NaN, NaN,NaN,328.0,NaN,NaN,NaN,2,8.6,000824,   NaN,325.8,     NaN,      NaN,NaN,5.8,NaN,13.497, NaN,NaN,NaN, NaN, NaN

20040121,001416,1314678,35.632167,-121.246333,NaN,13.498,32.926,39.240,  NaN,0.0, NaN, NaN, NaN, NaN, NaN,324.575,12.80,1017.23,83.40,NaN,347.0,NaN,7.0,NaN,287.6,NaN,3.5,NaN,NaN, NaN,NaN,331.0,NaN,NaN,NaN,2,8.8,000854,   NaN,326.5,     NaN,      NaN,NaN,5.8,NaN,13.501, NaN,NaN,NaN, NaN, NaN

20040121,001446,1314708,35.633167,-121.247167,NaN,13.507,32.924,39.247,  NaN,0.0, NaN, NaN, NaN, NaN, NaN,324.821,12.80,1016.89,83.30,NaN,4.0,NaN,8.4,NaN,330.9,NaN,3.1,NaN,NaN, NaN,NaN,327.0,NaN,NaN,NaN,2,8.6,000884,   NaN,326.1,     NaN,      NaN,NaN,6.0,NaN,13.510, NaN,NaN,NaN, NaN, NaN

20040121,001516,1314738,35.634167,-121.247833,NaN,13.512,32.926,39.254,  NaN,0.0, NaN, NaN, NaN, NaN, NaN,324.792,12.80,1017.17,83.30,NaN,349.0,NaN,6.0,NaN,295.5,NaN,2.2,NaN,NaN, NaN,NaN,330.0,NaN,NaN,NaN,2,8.6,000914,   NaN,326.0,     NaN,      NaN,NaN,5.7,NaN,13.515, NaN,NaN,NaN, NaN, NaN

20040121,001546,1314768,35.635167,-121.248667,NaN,13.524,32.924,39.263,  NaN,0.0, NaN, NaN, NaN, NaN, NaN,325.184,12.80,1017.12,83.20,NaN,354.0,NaN,7.2,NaN,333.5,NaN,3.2,NaN,NaN, NaN,NaN,328.0,NaN,NaN,NaN,2,8.7,000944,   NaN,326.2,     NaN,      NaN,NaN,5.8,NaN,13.528, NaN,NaN,NaN, NaN, NaN

20040121,001616,1314798,35.636333,-121.249333,NaN,13.518,32.920,39.253,  NaN,0.0, NaN, NaN, NaN, NaN, NaN,325.365,12.80,1017.30,83.40,NaN,342.0,NaN,7.8,NaN,287.3,NaN,4.4,NaN,NaN, NaN,NaN,329.0,NaN,NaN,NaN,2,8.8,000974,   NaN,326.1,     NaN,      NaN,NaN,6.0,NaN,13.521, NaN,NaN,NaN, NaN, NaN

20040121,001646,1314828,35.637333,-121.250167,NaN,13.525,32.919,39.258,  NaN,0.0, NaN, NaN, NaN, NaN, NaN,325.612,12.80,1017.05,82.90,NaN,355.0,NaN,8.0,NaN,311.3,NaN,3.9,NaN,NaN, NaN,NaN,326.0,NaN,NaN,NaN,2,8.7,001004,   NaN,326.3,     NaN,      NaN,NaN,6.0,NaN,13.528, NaN,NaN,NaN, NaN, NaN

20040121,001716,1314858,35.638333,-121.250833,NaN,13.517,32.920,39.252,  NaN,0.0, NaN, NaN, NaN, NaN, NaN,325.390,12.80,1017.19,82.40,NaN,351.0,NaN,7.2,NaN,303.8,NaN,2.8,NaN,NaN, NaN,NaN,330.0,NaN,NaN,NaN,2,8.7,001034,   NaN,327.0,     NaN,      NaN,NaN,5.9,NaN,13.521, NaN,NaN,NaN, NaN, NaN

20040121,001746,1314888,35.639333,-121.251667,NaN,13.504,32.920,39.240,  NaN,0.0, NaN, NaN, NaN, NaN, NaN,325.076,12.70,1017.20,82.00,NaN,358.0,NaN,7.4,NaN,320.7,NaN,2.8,NaN,NaN, NaN,NaN,329.0,NaN,NaN,NaN,2,8.8,001064,   NaN,326.2,     NaN,      NaN,NaN,6.0,NaN,13.507, NaN,NaN,NaN, NaN, NaN

20040121,001816,1314918,35.640500,-121.252333,NaN,13.501,32.920,39.236,  NaN,0.0, NaN, NaN, NaN, NaN, NaN,325.071,12.80,1017.08,81.90,NaN,355.0,NaN,7.8,NaN,303.6,NaN,2.5,NaN,NaN, NaN,NaN,328.0,NaN,NaN,NaN,2,8.6,001094,   NaN,325.5,     NaN,      NaN,NaN,6.2,NaN,13.504, NaN,NaN,NaN, NaN, NaN

20040121,001846,1314948,35.641333,-121.253167,NaN,13.500,32.920,39.236,  NaN,0.0, NaN, NaN, NaN, NaN, NaN,325.025,12.80,1017.11,82.90,NaN,354.0,NaN,4.9,NaN,292.3,NaN,1.7,NaN,NaN, NaN,NaN,327.0,NaN,NaN,NaN,2,7.1,001124,   NaN,323.9,     NaN,      NaN,NaN,5.2,NaN,13.503, NaN,NaN,NaN, NaN, NaN

20040121,001916,1314978,35.642000,-121.253667,NaN,13.497,32.922,39.236,  NaN,0.0, NaN, NaN, NaN, NaN, NaN,324.798,12.70,1017.11,81.90,NaN,355.0,NaN,5.2,NaN,302.8,NaN,2.5,NaN,NaN, NaN,NaN,324.0,NaN,NaN,NaN,2,5.1,001154,   NaN,320.7,     NaN,      NaN,NaN,3.7,NaN,13.500, NaN,NaN,NaN, NaN, NaN

20040121,001946,1315008,35.642500,-121.254000,NaN,13.497,32.921,39.234,  NaN,0.0, NaN, NaN, NaN, NaN, NaN,324.919,12.80,1017.13,82.10,NaN,0.0,NaN,4.2,NaN,301.1,NaN,2.5,NaN,NaN, NaN,NaN,315.0,NaN,NaN,NaN,2,3.3,001184,   NaN,308.8,     NaN,      NaN,NaN,2.5,NaN,13.500, NaN,NaN,NaN, NaN, NaN

20040121,002016,1315038,35.642667,-121.254333,NaN,13.506,32.921,39.243,  NaN,0.0, NaN, NaN, NaN, NaN, NaN,325.088,12.80,1017.01,82.10,NaN,19.0,NaN,4.4,NaN,308.3,NaN,3.1,NaN,NaN, NaN,NaN,291.0,NaN,NaN,NaN,2,1.7,001214,   NaN,286.8,     NaN,      NaN,NaN,1.4,NaN,13.510, NaN,NaN,NaN, NaN, NaN

20040121,002046,1315068,35.642667,-121.254667,NaN,13.509,32.922,39.246,  NaN,0.0, NaN, NaN, NaN, NaN, NaN,325.050,12.70,1017.15,81.80,NaN,25.0,NaN,5.2,NaN,311.4,NaN,4.5,NaN,NaN, NaN,NaN,270.0,NaN,NaN,NaN,2,2.2,001244,   NaN,279.1,     NaN,      NaN,NaN,1.5,NaN,13.512, NaN,NaN,NaN, NaN, NaN

20040121,002116,1315098,35.642667,-121.255000,NaN,13.501,32.923,39.240,  NaN,0.0, NaN, NaN, NaN, NaN, NaN,324.804,12.70,1017.19,81.80,NaN,6.0,NaN,4.4,NaN,309.5,NaN,4.2,NaN,NaN, NaN,NaN,295.0,NaN,NaN,NaN,2,1.6,001274,   NaN,301.6,     NaN,      NaN,NaN,1.2,NaN,13.504, NaN,NaN,NaN, NaN, NaN

20040121,002146,1315128,35.642833,-121.255000,NaN,13.503,32.924,39.243,  NaN,0.0, NaN, NaN, NaN, NaN, NaN,324.813,12.70,1017.13,81.40,NaN,348.0,NaN,2.6,NaN,305.7,NaN,2.6,NaN,NaN, NaN,NaN,337.0,NaN,NaN,NaN,2,1.0,001304,   NaN,323.1,     NaN,      NaN,NaN,0.8,NaN,13.506, NaN,NaN,NaN, NaN, NaN

20040121,002216,1315158,35.642833,-121.255167,NaN,13.498,32.925,39.239,  NaN,0.0, NaN, NaN, NaN, NaN, NaN,324.649,12.70,1017.25,81.40,NaN,338.0,NaN,4.4,NaN,305.6,NaN,3.5,NaN,NaN, NaN,NaN,0.0,NaN,NaN,NaN,2,1.2,001334,   NaN,331.3,     NaN,      NaN,NaN,0.8,NaN,13.501, NaN,NaN,NaN, NaN, NaN

20040121,002246,1315188,35.643000,-121.255167,NaN,13.497,32.925,39.238,  NaN,0.0, NaN, NaN, NaN, NaN, NaN,324.607,12.70,1017.11,81.10,NaN,344.0,NaN,3.6,NaN,312.7,NaN,3.6,NaN,NaN, NaN,NaN,358.0,NaN,NaN,NaN,2,1.1,001364,   NaN,326.3,     NaN,      NaN,NaN,0.8,NaN,13.500, NaN,NaN,NaN, NaN, NaN

20040121,002316,1315218,35.643000,-121.255167,NaN,13.495,32.925,39.237,  NaN,0.0, NaN, NaN, NaN, NaN, NaN,324.545,12.70,1017.20,81.20,NaN,0.0,NaN,3.8,NaN,310.2,NaN,3.7,NaN,NaN, NaN,NaN,306.0,NaN,NaN,NaN,2,0.9,001394,   NaN,315.6,     NaN,      NaN,NaN,0.6,NaN,13.498, NaN,NaN,NaN, NaN, NaN

20040121,002346,1315248,35.643167,-121.255167,NaN,13.493,32.925,39.235,  NaN,0.0, NaN, NaN, NaN, NaN, NaN,324.551,12.70,1017.15,81.10,NaN,6.0,NaN,2.8,NaN,307.8,NaN,3.1,NaN,NaN, NaN,NaN,302.0,NaN,NaN,NaN,2,0.5,001424,   NaN,303.7,     NaN,      NaN,NaN,0.4,NaN,13.497, NaN,NaN,NaN, NaN, NaN

20040121,002416,1315278,35.643167,-121.255167,NaN,13.497,32.926,39.239,  NaN,0.0, NaN, NaN, NaN, NaN, NaN,324.534,12.80,1017.23,81.50,NaN,15.0,NaN,4.3,NaN,311.1,NaN,3.5,NaN,NaN, NaN,NaN,85.0,NaN,NaN,NaN,2,0.4,001454,   NaN,295.2,     NaN,      NaN,NaN,0.3,NaN,13.500, NaN,NaN,NaN, NaN, NaN

20040121,002446,1315308,35.643167,-121.255167,NaN,13.499,32.927,39.243,  NaN,0.0, NaN, NaN, NaN, NaN, NaN,324.497,12.80,1017.13,82.50,NaN,17.0,NaN,4.4,NaN,308.0,NaN,3.9,NaN,NaN, NaN,NaN,168.0,NaN,NaN,NaN,2,0.2,001484,   NaN,293.7,     NaN,      NaN,NaN,0.2,NaN,13.502, NaN,NaN,NaN, NaN, NaN

20040121,002516,1315338,35.643167,-121.255167,NaN,13.503,32.927,39.246,  NaN,0.0, NaN, NaN, NaN, NaN, NaN,324.598,12.80,1017.24,82.40,NaN,20.0,NaN,3.7,NaN,313.3,NaN,3.0,NaN,NaN, NaN,NaN,166.0,NaN,NaN,NaN,2,1.0,001514,   NaN,294.5,     NaN,      NaN,NaN,0.4,NaN,13.507, NaN,NaN,NaN, NaN, NaN

20040121,002546,1315368,35.643167,-121.255167,NaN,13.507,32.927,39.250,  NaN,0.0, NaN, NaN, NaN, NaN, NaN,324.650,12.70,1017.23,81.00,NaN,19.0,NaN,3.4,NaN,308.7,NaN,3.4,NaN,NaN, NaN,NaN,143.0,NaN,NaN,NaN,2,0.7,001544,   NaN,291.0,     NaN,      NaN,NaN,0.2,NaN,13.510, NaN,NaN,NaN, NaN, NaN

20040121,002616,1315398,35.643167,-121.255167,NaN,13.517,32.927,39.259,  NaN,0.0, NaN, NaN, NaN, NaN, NaN,324.839,12.70,1017.16,81.10,NaN,26.0,NaN,4.4,NaN,313.6,NaN,3.9,NaN,NaN, NaN,NaN,142.0,NaN,NaN,NaN,2,0.5,001574,   NaN,287.0,     NaN,      NaN,NaN,0.1,NaN,13.520, NaN,NaN,NaN, NaN, NaN

20040121,002646,1315428,35.643167,-121.255167,NaN,13.502,32.930,39.249,  NaN,0.0, NaN, NaN, NaN, NaN, NaN,324.313,12.80,1017.21,82.30,NaN,30.0,NaN,4.2,NaN,317.4,NaN,4.5,NaN,NaN, NaN,NaN,126.0,NaN,NaN,NaN,2,0.5,001604,   NaN,284.7,     NaN,      NaN,NaN,0.2,NaN,13.505, NaN,NaN,NaN, NaN, NaN

20040121,002716,1315458,35.643000,-121.255000,NaN,13.465,32.928,39.212,  NaN,0.0, NaN, NaN, NaN, NaN, NaN,323.759,12.70,1017.23,81.90,NaN,31.0,NaN,3.5,NaN,314.1,NaN,3.7,NaN,NaN, NaN,NaN,121.0,NaN,NaN,NaN,2,0.7,001634,   NaN,278.9,     NaN,      NaN,NaN,0.2,NaN,13.468, NaN,NaN,NaN, NaN, NaN

20040121,002746,1315488,35.643000,-121.255000,NaN,13.493,32.928,39.238,  NaN,0.0, NaN, NaN, NaN, NaN, NaN,324.338,12.80,1017.18,82.80,NaN,30.0,NaN,3.9,NaN,311.2,NaN,3.6,NaN,NaN, NaN,NaN,196.0,NaN,NaN,NaN,2,0.5,001664,   NaN,279.1,     NaN,      NaN,NaN,0.4,NaN,13.496, NaN,NaN,NaN, NaN, NaN

20040121,002816,1315518,35.643000,-121.255000,NaN,13.496,32.930,39.243,  NaN,0.0, NaN, NaN, NaN, NaN, NaN,324.203,12.80,1017.10,82.00,NaN,34.0,NaN,4.6,NaN,319.0,NaN,4.7,NaN,NaN, NaN,NaN,112.0,NaN,NaN,NaN,2,0.4,001694,   NaN,281.5,     NaN,      NaN,NaN,0.3,NaN,13.499, NaN,NaN,NaN, NaN, NaN

20040121,002846,1315548,35.643000,-121.255000,NaN,13.462,32.931,39.213,  NaN,0.0, NaN, NaN, NaN, NaN, NaN,323.483,12.70,1017.19,81.50,NaN,36.0,NaN,5.4,NaN,320.3,NaN,4.6,NaN,NaN, NaN,NaN,209.0,NaN,NaN,NaN,2,0.9,001724,   NaN,282.9,     NaN,      NaN,NaN,0.4,NaN,13.466, NaN,NaN,NaN, NaN, NaN

20040121,002916,1315578,35.642833,-121.255000,NaN,13.450,32.931,39.202,  NaN,0.0, NaN, NaN, NaN, NaN, NaN,323.238,12.70,1017.12,81.40,NaN,30.0,NaN,4.4,NaN,320.6,NaN,4.3,NaN,NaN, NaN,NaN,205.0,NaN,NaN,NaN,2,0.6,001754,   NaN,288.8,     NaN,      NaN,NaN,0.3,NaN,13.453, NaN,NaN,NaN, NaN, NaN

20040121,002946,1315608,35.642833,-121.255000,NaN,13.439,32.929,39.190,  NaN,0.0, NaN, NaN, NaN, NaN, NaN,323.173,12.70,1017.21,81.20,NaN,24.0,NaN,4.6,NaN,317.7,NaN,4.7,NaN,NaN, NaN,NaN,156.0,NaN,NaN,NaN,2,0.5,001784,   NaN,291.4,     NaN,      NaN,NaN,0.2,NaN,13.442, NaN,NaN,NaN, NaN, NaN

20040121,003016,1315638,35.642833,-121.255000,NaN,13.447,32.929,39.197,  NaN,0.0, NaN, NaN, NaN, NaN, NaN,323.347,12.70,1017.09,81.20,NaN,23.0,NaN,4.6,NaN,316.8,NaN,4.0,NaN,NaN, NaN,NaN,142.0,NaN,NaN,NaN,2,0.7,001814,   NaN,291.3,     NaN,      NaN,NaN,0.2,NaN,13.451, NaN,NaN,NaN, NaN, NaN

20040121,003046,1315668,35.642667,-121.255000,NaN,13.476,32.929,39.223,  NaN,0.0, NaN, NaN, NaN, NaN, NaN,323.922,12.80,1017.13,81.50,NaN,26.0,NaN,3.6,NaN,317.8,NaN,3.5,NaN,NaN, NaN,NaN,141.0,NaN,NaN,NaN,2,0.7,001844,   NaN,289.2,     NaN,      NaN,NaN,0.1,NaN,13.479, NaN,NaN,NaN, NaN, NaN

20040121,003116,1315698,35.642667,-121.255000,NaN,13.466,32.934,39.219,  NaN,0.0, NaN, NaN, NaN, NaN, NaN,323.370,12.80,1017.15,81.80,NaN,33.0,NaN,3.7,NaN,321.1,NaN,3.3,NaN,NaN, NaN,NaN,151.0,NaN,NaN,NaN,2,0.9,001874,   NaN,283.3,     NaN,      NaN,NaN,0.1,NaN,13.469, NaN,NaN,NaN, NaN, NaN

20040121,003146,1315728,35.642500,-121.254833,NaN,13.441,32.935,39.197,  NaN,0.0, NaN, NaN, NaN, NaN, NaN,322.826,12.80,1017.13,82.50,NaN,38.0,NaN,4.1,NaN,317.4,NaN,3.6,NaN,NaN, NaN,NaN,144.0,NaN,NaN,NaN,2,1.2,001904,   NaN,276.8,     NaN,      NaN,NaN,0.1,NaN,13.444, NaN,NaN,NaN, NaN, NaN

20040121,003216,1315758,35.642333,-121.254833,NaN,13.410,32.936,39.170,  NaN,0.0, NaN, NaN, NaN, NaN, NaN,322.120,12.80,1017.05,81.60,NaN,50.0,NaN,4.2,NaN,322.1,NaN,3.9,NaN,NaN, NaN,NaN,139.0,NaN,NaN,NaN,2,1.1,001934,   NaN,267.5,     NaN,      NaN,NaN,0.0,NaN,13.413, NaN,NaN,NaN, NaN, NaN

20040121,003246,1315788,35.642167,-121.254667,NaN,13.385,32.935,39.146,  NaN,0.0, NaN, NaN, NaN, NaN, NaN,321.767,12.80,1017.19,82.30,NaN,57.0,NaN,3.0,NaN,324.6,NaN,2.9,NaN,NaN, NaN,NaN,146.0,NaN,NaN,NaN,2,1.1,001964,   NaN,261.6,     NaN,      NaN,NaN,0.0,NaN,13.389, NaN,NaN,NaN, NaN, NaN

20040121,003316,1315818,35.642167,-121.254500,NaN,13.425,32.930,39.178,  NaN,0.0, NaN, NaN, NaN, NaN, NaN,322.837,12.80,1017.10,83.40,NaN,65.0,NaN,2.5,NaN,332.8,NaN,2.6,NaN,NaN, NaN,NaN,137.0,NaN,NaN,NaN,2,1.2,001994,   NaN,255.1,     NaN,      NaN,NaN,0.2,NaN,13.428, NaN,NaN,NaN, NaN, NaN

20040121,003346,1315848,35.642000,-121.254333,NaN,13.431,32.933,39.187,  NaN,0.0, NaN, NaN, NaN, NaN, NaN,322.732,13.00,1017.07,83.40,NaN,64.0,NaN,0.8,NaN,334.2,NaN,1.3,NaN,NaN, NaN,NaN,134.0,NaN,NaN,NaN,2,1.1,002024,   NaN,246.2,     NaN,      NaN,NaN,0.0,NaN,13.434, NaN,NaN,NaN, NaN, NaN

20040121,003416,1315878,35.642000,-121.254167,NaN,13.432,32.934,39.188,  NaN,0.0, NaN, NaN, NaN, NaN, NaN,322.729,12.80,1017.03,83.50,NaN,83.0,NaN,3.8,NaN,326.6,NaN,3.6,NaN,NaN, NaN,NaN,121.0,NaN,NaN,NaN,2,1.0,002054,   NaN,235.1,     NaN,      NaN,NaN,0.0,NaN,13.435, NaN,NaN,NaN, NaN, NaN

20040121,003446,1315908,35.641833,-121.254000,NaN,13.428,32.935,39.185,  NaN,0.0, NaN, NaN, NaN, NaN, NaN,322.533,12.80,1017.25,84.40,NaN,81.0,NaN,3.9,NaN,317.1,NaN,3.6,NaN,NaN, NaN,NaN,117.0,NaN,NaN,NaN,2,1.1,002084,   NaN,225.9,     NaN,      NaN,NaN,0.0,NaN,13.431, NaN,NaN,NaN, NaN, NaN

20040121,003516,1315938,35.641833,-121.254000,NaN,13.427,32.933,39.183,  NaN,0.0, NaN, NaN, NaN, NaN, NaN,322.681,12.80,1017.06,83.50,NaN,91.0,NaN,4.9,NaN,319.7,NaN,4.7,NaN,NaN, NaN,NaN,119.0,NaN,NaN,NaN,2,1.2,002114,   NaN,222.5,     NaN,      NaN,NaN,0.2,NaN,13.430, NaN,NaN,NaN, NaN, NaN

20040121,003546,1315968,35.641667,-121.253833,NaN,13.443,32.933,39.198,  NaN,0.0, NaN, NaN, NaN, NaN, NaN,322.959,12.70,1017.19,83.50,NaN,90.0,NaN,2.9,NaN,329.9,NaN,2.8,NaN,NaN, NaN,NaN,146.0,NaN,NaN,NaN,2,1.3,002144,   NaN,225.2,     NaN,      NaN,NaN,0.2,NaN,13.447, NaN,NaN,NaN, NaN, NaN

20040121,003616,1315998,35.641500,-121.253667,NaN,13.454,32.934,39.209,  NaN,0.0, NaN, NaN, NaN, NaN, NaN,323.097,12.70,1017.02,83.50,NaN,85.0,NaN,3.6,NaN,325.1,NaN,3.6,NaN,NaN, NaN,NaN,159.0,NaN,NaN,NaN,2,1.2,002174,   NaN,230.0,     NaN,      NaN,NaN,0.5,NaN,13.457, NaN,NaN,NaN, NaN, NaN

20040121,003646,1316028,35.641500,-121.253667,NaN,13.456,32.934,39.211,  NaN,0.0, NaN, NaN, NaN, NaN, NaN,323.134,12.70,1017.25,84.30,NaN,81.0,NaN,2.7,NaN,336.2,NaN,2.0,NaN,NaN, NaN,NaN,171.0,NaN,NaN,NaN,2,1.2,002204,   NaN,237.0,     NaN,      NaN,NaN,0.5,NaN,13.459, NaN,NaN,NaN, NaN, NaN

20040121,003716,1316058,35.641333,-121.253667,NaN,13.457,32.935,39.213,  NaN,0.0, NaN, NaN, NaN, NaN, NaN,323.102,12.70,1017.07,83.30,NaN,74.0,NaN,3.5,NaN,329.3,NaN,3.2,NaN,NaN, NaN,NaN,149.0,NaN,NaN,NaN,2,1.1,002234,   NaN,244.6,     NaN,      NaN,NaN,0.4,NaN,13.461, NaN,NaN,NaN, NaN, NaN

20040121,003746,1316088,35.641167,-121.253500,NaN,13.454,32.936,39.211,  NaN,0.0, NaN, NaN, NaN, NaN, NaN,322.971,12.70,1017.05,83.40,NaN,70.0,NaN,3.3,NaN,325.6,NaN,3.4,NaN,NaN, NaN,NaN,157.0,NaN,NaN,NaN,2,1.0,002264,   NaN,246.2,     NaN,      NaN,NaN,0.2,NaN,13.458, NaN,NaN,NaN, NaN, NaN

20040121,003816,1316118,35.641167,-121.253500,NaN,13.450,32.936,39.208,  NaN,0.0, NaN, NaN, NaN, NaN, NaN,322.873,12.70,1017.17,83.00,NaN,70.0,NaN,3.6,NaN,319.9,NaN,3.5,NaN,NaN, NaN,NaN,152.0,NaN,NaN,NaN,2,0.8,002294,   NaN,244.2,     NaN,      NaN,NaN,0.2,NaN,13.454, NaN,NaN,NaN, NaN, NaN

20040121,003846,1316148,35.641000,-121.253333,NaN,13.450,32.936,39.207,  NaN,0.0, NaN, NaN, NaN, NaN, NaN,322.899,12.70,1017.03,83.50,NaN,84.0,NaN,2.1,NaN,345.3,NaN,1.8,NaN,NaN, NaN,NaN,135.0,NaN,NaN,NaN,2,1.3,002324,   NaN,240.3,     NaN,      NaN,NaN,0.0,NaN,13.453, NaN,NaN,NaN, NaN, NaN

20040121,003916,1316178,35.640833,-121.253167,NaN,13.447,32.937,39.205,  NaN,0.0, NaN, NaN, NaN, NaN, NaN,322.723,12.70,1017.07,83.80,NaN,82.0,NaN,3.7,NaN,326.1,NaN,3.6,NaN,NaN, NaN,NaN,136.0,NaN,NaN,NaN,2,0.9,002354,   NaN,236.7,     NaN,      NaN,NaN,0.1,NaN,13.450, NaN,NaN,NaN, NaN, NaN

20040121,003946,1316208,35.640833,-121.253167,NaN,13.445,32.937,39.203,  NaN,0.0, NaN, NaN, NaN, NaN, NaN,322.730,12.70,1017.07,83.90,NaN,73.0,NaN,2.5,NaN,330.0,NaN,1.9,NaN,NaN, NaN,NaN,141.0,NaN,NaN,NaN,2,1.3,002384,   NaN,236.8,     NaN,      NaN,NaN,0.2,NaN,13.448, NaN,NaN,NaN, NaN, NaN

20040121,004016,1316238,35.640667,-121.253000,NaN,13.446,32.937,39.204,  NaN,0.0, NaN, NaN, NaN, NaN, NaN,322.726,12.70,1017.14,82.80,NaN,77.0,NaN,3.3,NaN,328.8,NaN,2.7,NaN,NaN, NaN,NaN,126.0,NaN,NaN,NaN,2,1.4,002414,   NaN,235.3,     NaN,      NaN,NaN,0.3,NaN,13.449, NaN,NaN,NaN, NaN, NaN
